Dati Storici

Data ora Umidita' aria (%) Temperatura aria (°C) Rad globale (W/m²) Gonioanemometro (°) Tacoanemometro (m/s) Pioggia (mm)
27-06-2020 06:50 84.4 % 23.11 49.088 1.127 0 0
27-06-2020 06:40 86.8 % 23.526 13.195 1.405 0 0
27-06-2020 06:30 85.8 % 23.437 36.489 0.549 0 0
27-06-2020 06:20 88.3 % 23.67 41.882 0.737 0 0
27-06-2020 06:10 90.2 % 23.118 62.09 -0.026 0 0
27-06-2020 06:00 91.6 % 22.661 16.701 0.097 0 0
27-06-2020 05:50 94.2 % 22.316 51.408 -0.023 0 0
27-06-2020 05:40 94.7 % 21.697 35.613 0.256 0 0
27-06-2020 05:30 96.2 % 21.441 45.869 0.598 0 0
27-06-2020 05:20 96.7 % 20.942 49.377 -0.016 0 0
27-06-2020 05:10 94.6 % 20.946 56.196 -0.016 0 0
27-06-2020 05:00 93.6 % 20.942 19.549 -0.016 0 0
27-06-2020 04:50 92.4 % 21.081 72.565 -0.016 0 0
27-06-2020 04:40 92.4 % 21.256 43.198 -0.015 0 0
27-06-2020 04:30 91.8 % 21.251 24.874 -0.005 0 0
27-06-2020 04:20 91.4 % 21.354 11.062 0.963 0 0
27-06-2020 04:10 91.2 % 21.379 13.107 1.036 0 0
27-06-2020 04:00 91.4 % 21.272 16.425 0.689 0 0
27-06-2020 03:50 92.1 % 21.324 50.807 0.339 0 0
27-06-2020 03:40 93.6 % 21.363 36.433 -0.02 0 0

I dati sono presentati in modo automatico a scopo informativo. In seguito a verifica i dati possono subire modifiche o essere invalidati e non riportati negli archivi definitivi.